Regional Weather Roundup
Issued by NWS

Home | Current Version | Previous Version | Text Only | Print | Product List | Glossary Off
Versions: 1 2 3 4 5 6 7 8 9 10 11 12 13 14 15 16 17 18 19 20 21 22 23 24 25 26 27 28 29 30 31 32 33 34 35 36 37 38 39 40 41 42 43 44 45 46 47 48 49 50

000
ASUS43 KLOT 211800
RWRIL

ILLINOIS REGIONAL WEATHER ROUNDUP
NATIONAL WEATHER SERVICE CHICAGO/ROMEOVILLE IL
100 PM CDT THU AUG 21 2014

NOTE: "FAIR" INDICATES FEW OR NO CLOUDS BELOW 12,000 FEET WITH NO
SIGNIFICANT WEATHER AND/OR OBSTRUCTIONS TO VISIBILITY.

* THESE STATIONS ARE NOT UNDER NWS QUALITY CONTROL. THEY ALSO MAY NOT
  REPORT WEATHER SUCH AS PRECIPITATION OR FOG.

ILZ001-002-007-009-015-016-024-211900-
NORTHWEST ILLINOIS

CITY           SKY/WX    TMP DP  RH WIND       PRES   REMARKS
MOLINE         CLOUDY    83  73  72 SW5       29.93R HX  89
6HR MIN TEMP:  73; 6HR MAX TEMP:  83;

STERLING*      CLOUDY    81  73  78 W3        29.94S HX  85
$$

ILZ003-004-008-010-011-017-018-211900-
NORTH CENTRAL ILLINOIS

CITY           SKY/WX    TMP DP  RH WIND       PRES   REMARKS
ROCKFORD       CLOUDY    77  72  84 S6        29.95F
6HR MIN TEMP:  69; 6HR MAX TEMP:  77; 6HR PCP:  0.13;

ROCHELLE*      CLOUDY    77  73  86 S8        29.95F
$$

ILZ005-006-012>014-019>023-211900-
NORTHEAST ILLINOIS

CITY           SKY/WX    TMP DP  RH WIND       PRES   REMARKS
CHICAGO-OHARE  CLOUDY    77  68  73 SW3       29.96R
6HR MIN TEMP:  71; 6HR MAX TEMP:  77; 6HR PCP:  0.21;

CHICAGO-MIDWAY CLOUDY    79  72  79 S8        29.95S HX  82
6HR MIN TEMP:  72; 6HR MAX TEMP:  79; 6HR PCP:  0.36;

AURORA         CLOUDY    77  72  84 SW6       29.96S
6HR MIN TEMP:  70; 6HR MAX TEMP:  78; 6HR PCP:  0.38;

WAUKEGAN       RAIN      73  70  90 CALM      29.97R FOG
6HR MIN TEMP:  69; 6HR MAX TEMP:  75; 6HR PCP:  0.08;

DUPAGE AIRPORT CLOUDY    76  72  87 S5        29.96R
6HR MIN TEMP:  70; 6HR MAX TEMP:  76; 6HR PCP:  0.91;

WHEELING       LGT RAIN  77  71  82 CALM      29.97R
6HR MIN TEMP:  72; 6HR MAX TEMP:  77; 6HR PCP:  0.16;

NORTHERLY ISL    N/A     77  70  79 SW6         N/A
$$

LMZ740>746-211900-
SOUTHERN LAKE MICHIGAN

STATION/POSITION SKY/WX   TEMP    WIND        PRES    VSBY  WAVE
                          AIR SEA DIR/SP/G                  HT/PER
                          (F)     (DEG/KT/KT) (MB)    (MI)  (FT/S)
SOUTHERN BUOY              69 69  120/  2/  4 1013.8R         0
WAUKEGAN HARBOR            74     260/  4/  9   N/A
HARRISON CRIB              74     190/ 10/ 12   N/A
BURNHAM HARBOR             77     230/  7/  9   N/A
CALUMET HARBOR             76     200/  6/  9 1013.2R
MICHIGAN CITY              74     180/  7/  9   N/A
MICHIGAN CITY 6N           74 71  170/  2/  2   N/A           0
ST. JOSEPH                 72 71  230/  6/  8   N/A           1/ 3
$$

ILZ025>027-034>036-040-047-049-050-058-095>099-211900-
WEST-CENTRAL ILLINOIS

CITY           SKY/WX    TMP DP  RH WIND       PRES   REMARKS
QUINCY         MOSUNNY   88  73  61 SW15      29.94F HX  95
MACOMB*        PTSUNNY   84  75  73 SW9       29.96S HX  92
$$

ILZ028>032-037-038-041>044-048-051>054-059>061-211900-
CENTRAL ILLINOIS

CITY           SKY/WX    TMP DP  RH WIND       PRES   REMARKS
DECATUR        PTSUNNY   87  74  64 SW14      29.99F HX  95
PEORIA         CLOUDY    85  73  67 SW7       29.95F HX  91
6HR MIN TEMP:  73; 6HR MAX TEMP:  86;

SPRINGFIELD    PTSUNNY   86  74  67 SW12G20   29.97F HX  94
6HR MIN TEMP:  73; 6HR MAX TEMP:  87;

TAYLORVILLE    NOT AVBL
$$

ILZ033-039-045-046-055>057-062-063-211900-
EAST-CENTRAL ILLINOIS

CITY           SKY/WX    TMP DP  RH WIND       PRES   REMARKS
CHAMPAIGN      CLOUDY    85  75  72 SW9       29.99F HX  93
MATTOON        PTSUNNY   84  74  71 SW9       30.00F HX  91
$$

ILZ079-100>102-211900-
SOUTHWEST ILLINOIS

CITY           SKY/WX    TMP DP  RH WIND       PRES   REMARKS
ALTON          PTSUNNY   88  79  74 SW9       30.00F HX 102
BELLEVILLE     PTSUNNY   90  77  65 VRB3      30.00F HX 102
CAHOKIA*       PTSUNNY   90  75  61 S6        29.99F HX 100
$$

ILZ064>066-069>071-074>076-080>082-084>086-088>090-092>094-211900-
SOUTH-CENTRAL ILLINOIS

CITY           SKY/WX    TMP DP  RH WIND       PRES   REMARKS
CARBONDALE     PTSUNNY   89  74  60 SW12      30.03F HX  98
6HR MIN TEMP:  76; 6HR MAX TEMP:  90;

MARION         PTSUNNY   91  75  59 SW8       30.04F HX 102
MT. VERNON     PTSUNNY   90  75  62 SW10      30.03F HX 100
SALEM*         PTSUNNY   89  76  65 SW9       30.02F HX 101
$$

ILZ067-068-072-073-078-083-087-091-211900-
SOUTHEAST ILLINOIS

CITY           SKY/WX    TMP DP  RH WIND       PRES   REMARKS
LAWRENCEVILLE  PTSUNNY   88  75  65 SW8       30.04F HX  97
HARRISBURG*    MOSUNNY   90  73  58 SW9       30.06F HX  98
ROBINSON*      PTSUNNY   88  78  72 SW9       30.03F HX 101
$$

ABBREVIATIONS USED IN REMARKS
   TC - TEMPERATURE IN CELSIUS
  WCI - WIND CHILL INDEX
   HX - HEAT INDEX
  VSB - VISIBILITY
$$




USA.gov is the U.S. government's official web portal to all federal, state and local government web resources and services.